Tracking 30466 objects as of 17-May-2025
HD Live streaming from Space Station
objects crossing your sky now

THORAD AGENA D DEB

Track THORAD AGENA D DEB now!
10-day predictions


NORAD ID: 4749
Int'l Code: 1970-025CX
Perigee: 941.9 km
Apogee: 965.0 km
Inclination: 99.0 °
Period: 104.0 minutes
Semi major axis: 7324 km
RCS: 0.0977 m2 (small)
Launch date: April 8, 1970
Source: United States (US)
Launch site: AIR FORCE WESTERN TEST RANGE (AFWTR)

Note: This is SATELLITE DEBRIS
Your satellite tracking list
Your tracking list is empty




NASA's NSSDC Master Catalog

Two Line Element Set (TLE):
1 04749U 70025CX  25136.54392508  .00001122  00000-0  10293-2 0  9994
2 04749  99.0209 341.5437 0015733 359.5041   0.6097 13.84974798748425
Source of the keplerian elements: AFSPC